GLD1444 SBBR-SBPJ

Flight info

Callsign GLD1444
Flight time 0h 57m
Altitude 38000
Route UTGO1B ILKUS UZ26 LIBEC DCT
Aircraft A20N/M-SDFGIRY/S

Departure

Time 2026-05-01 12:43
Airport Presidente Juscelino Kubitschek International Airport (SBBR)

Arrival

Time 2026-05-01 13:41
Airport Brigadeiro Lysias Rodrigues Airport (SBPJ)
Time Latitude Longitude Altitude Speed Heading
2026-05-01 12:26 -15.87259 -47.91802 3469 ft 0 kts 357°
2026-05-01 12:31 -15.87271 -47.91802 3468 ft 2 kts 359°
2026-05-01 12:32 -15.87288 -47.91802 3468 ft 2 kts
2026-05-01 12:32 -15.87320 -47.91808 3469 ft 2 kts 55°
2026-05-01 12:32 -15.87324 -47.91818 3469 ft 0 kts 87°
2026-05-01 12:33 -15.87324 -47.91819 3469 ft 0 kts 87°
2026-05-01 12:35 -15.87323 -47.91812 3469 ft 2 kts 87°
2026-05-01 12:35 -15.87322 -47.91791 3469 ft 4 kts 87°
2026-05-01 12:35 -15.87321 -47.91757 3470 ft 6 kts 87°
2026-05-01 12:35 -15.87319 -47.91711 3470 ft 7 kts 87°
2026-05-01 12:36 -15.87333 -47.91668 3468 ft 6 kts 156°
2026-05-01 12:36 -15.87382 -47.91669 3470 ft 8 kts 177°
2026-05-01 12:36 -15.87445 -47.91663 3470 ft 11 kts 173°
2026-05-01 12:36 -15.87527 -47.91655 3470 ft 13 kts 176°
2026-05-01 12:37 -15.87622 -47.91647 3468 ft 15 kts 175°
2026-05-01 12:37 -15.87727 -47.91659 3469 ft 16 kts 221°
2026-05-01 12:37 -15.87747 -47.91774 3469 ft 18 kts 267°
2026-05-01 12:37 -15.87756 -47.91912 3470 ft 20 kts 265°
2026-05-01 12:38 -15.87766 -47.92064 3471 ft 21 kts 266°
2026-05-01 12:38 -15.87776 -47.92221 3470 ft 23 kts 266°
2026-05-01 12:38 -15.87787 -47.92385 3471 ft 19 kts 266°
2026-05-01 12:38 -15.87795 -47.92500 3471 ft 15 kts 266°
2026-05-01 12:39 -15.87801 -47.92621 3471 ft 18 kts 266°
2026-05-01 12:39 -15.87811 -47.92762 3471 ft 21 kts 265°
2026-05-01 12:39 -15.87819 -47.92919 3471 ft 23 kts 267°
2026-05-01 12:39 -15.87831 -47.93093 3471 ft 20 kts 266°
2026-05-01 12:40 -15.87840 -47.93247 3471 ft 22 kts 266°
2026-05-01 12:40 -15.87851 -47.93412 3472 ft 24 kts 266°
2026-05-01 12:40 -15.87858 -47.93570 3472 ft 22 kts 269°
2026-05-01 12:40 -15.87868 -47.93730 3473 ft 24 kts 265°
2026-05-01 12:41 -15.87882 -47.93902 3473 ft 20 kts 265°
2026-05-01 12:41 -15.87895 -47.93974 3472 ft 10 kts 243°
2026-05-01 12:41 -15.87949 -47.93996 3473 ft 8 kts 172°
2026-05-01 12:41 -15.87985 -47.93992 3478 ft 2 kts 174°
2026-05-01 12:42 -15.87988 -47.93991 3478 ft 1 kts 174°
2026-05-01 12:42 -15.88019 -47.93988 3483 ft 6 kts 174°
2026-05-01 12:42 -15.88061 -47.93968 3484 ft 8 kts 117°
2026-05-01 12:42 -15.88056 -47.93899 3484 ft 15 kts 87°
2026-05-01 12:43 -15.88031 -47.93495 3480 ft 98 kts 86°
2026-05-01 12:43 -15.87974 -47.92558 3485 ft 161 kts 86°
2026-05-01 12:43 -15.87894 -47.91344 4238 ft 170 kts 86°
2026-05-01 12:43 -15.87820 -47.90128 5314 ft 164 kts 86°
2026-05-01 12:44 -15.87757 -47.88914 6008 ft 176 kts 86°
2026-05-01 12:44 -15.87681 -47.87567 6496 ft 198 kts 85°
2026-05-01 12:44 -15.87477 -47.84342 7361 ft 247 kts 84°
2026-05-01 12:45 -15.87224 -47.80609 8756 ft 264 kts 84°
2026-05-01 12:45 -15.86814 -47.78771 9584 ft 267 kts 68°
2026-05-01 12:45 -15.85822 -47.77120 9993 ft 273 kts 49°
2026-05-01 12:46 -15.84291 -47.75892 10402 ft 290 kts 32°
2026-05-01 12:46 -15.82273 -47.75216 10613 ft 321 kts 11°
2026-05-01 12:46 -15.80014 -47.75392 10936 ft 348 kts 348°
2026-05-01 12:46 -15.77723 -47.76322 11608 ft 356 kts 340°
2026-05-01 12:47 -15.75429 -47.77387 12303 ft 361 kts 339°
2026-05-01 12:47 -15.73118 -47.78472 12981 ft 365 kts 339°
2026-05-01 12:47 -15.70809 -47.79543 13630 ft 370 kts 339°
2026-05-01 12:47 -15.68435 -47.80625 14256 ft 374 kts 339°
2026-05-01 12:48 -15.66069 -47.81796 14905 ft 378 kts 336°
2026-05-01 12:48 -15.63711 -47.83022 15566 ft 380 kts 337°
2026-05-01 12:48 -15.61324 -47.84261 16104 ft 384 kts 336°
2026-05-01 12:48 -15.58925 -47.85503 16730 ft 386 kts 336°
2026-05-01 12:49 -15.56515 -47.86749 17328 ft 389 kts 337°
2026-05-01 12:49 -15.54112 -47.87989 17913 ft 392 kts 336°
2026-05-01 12:49 -15.51660 -47.89256 18527 ft 393 kts 336°
2026-05-01 12:49 -15.49187 -47.90538 18945 ft 399 kts 336°
2026-05-01 12:50 -15.46693 -47.91829 19452 ft 402 kts 336°
2026-05-01 12:50 -15.44180 -47.93132 19930 ft 405 kts 336°
2026-05-01 12:50 -15.41673 -47.94429 20429 ft 408 kts 336°
2026-05-01 12:50 -15.39113 -47.95753 20892 ft 412 kts 336°
2026-05-01 12:51 -15.36538 -47.97084 21369 ft 415 kts 336°
2026-05-01 12:51 -15.33960 -47.98415 21831 ft 419 kts 336°
2026-05-01 12:51 -15.28700 -48.01128 22754 ft 426 kts 336°
2026-05-01 12:52 -15.26030 -48.02507 23205 ft 429 kts 336°
2026-05-01 12:52 -15.20663 -48.05278 24031 ft 436 kts 336°
2026-05-01 12:52 -15.17934 -48.06686 24454 ft 437 kts 336°
2026-05-01 12:53 -15.12444 -48.09516 25239 ft 442 kts 336°
2026-05-01 12:53 -15.09714 -48.10922 25627 ft 444 kts 336°
2026-05-01 12:53 -15.06946 -48.12348 26004 ft 446 kts 336°
2026-05-01 12:54 -15.04149 -48.13789 26371 ft 449 kts 336°
2026-05-01 12:54 -14.98514 -48.16690 27063 ft 454 kts 336°
2026-05-01 12:54 -14.95703 -48.18112 27400 ft 455 kts 339°
2026-05-01 12:55 -14.89620 -48.19867 28071 ft 454 kts 355°
2026-05-01 12:55 -14.86462 -48.20066 28394 ft 454 kts
2026-05-01 12:55 -14.83293 -48.20142 28724 ft 456 kts
2026-05-01 12:56 -14.80154 -48.20225 29032 ft 458 kts
2026-05-01 12:56 -14.76946 -48.20313 29334 ft 461 kts
2026-05-01 12:56 -14.73722 -48.20404 29644 ft 463 kts
2026-05-01 12:56 -14.70500 -48.20494 29968 ft 465 kts
2026-05-01 12:57 -14.67251 -48.20585 30240 ft 467 kts
2026-05-01 12:57 -14.60763 -48.20766 30804 ft 470 kts
2026-05-01 12:57 -14.57477 -48.20859 31099 ft 471 kts
2026-05-01 12:58 -14.54197 -48.20950 31406 ft 472 kts
2026-05-01 12:58 -14.50958 -48.21041 31781 ft 471 kts
2026-05-01 12:58 -14.47683 -48.21132 32151 ft 471 kts
2026-05-01 12:59 -14.41144 -48.21315 32884 ft 469 kts
2026-05-01 12:59 -14.37924 -48.21405 33240 ft 468 kts
2026-05-01 12:59 -14.31427 -48.21586 33946 ft 466 kts 360°
2026-05-01 13:00 -14.24965 -48.21766 34562 ft 463 kts
2026-05-01 13:00 -14.21747 -48.21854 34846 ft 462 kts 360°
2026-05-01 13:01 -14.15328 -48.22032 35390 ft 461 kts
2026-05-01 13:01 -14.12124 -48.22121 35652 ft 460 kts 359°
2026-05-01 13:01 -14.05729 -48.22298 36196 ft 458 kts 359°
2026-05-01 13:02 -14.02535 -48.22386 36464 ft 458 kts 359°
2026-05-01 13:07 -13.36372 -48.24218 38069 ft 453 kts 359°
2026-05-01 13:07 -13.33246 -48.24305 38070 ft 453 kts 359°
2026-05-01 13:08 -13.26943 -48.24479 38064 ft 453 kts 359°
2026-05-01 13:08 -13.20633 -48.24654 38067 ft 453 kts 359°
2026-05-01 13:09 -13.14358 -48.24827 38065 ft 453 kts 359°
2026-05-01 13:09 -13.08056 -48.25003 38067 ft 453 kts 359°
2026-05-01 13:10 -13.01742 -48.25177 38067 ft 453 kts 359°
2026-05-01 13:10 -12.95465 -48.25350 38061 ft 453 kts 359°
2026-05-01 13:11 -12.90222 -48.25494 38062 ft 453 kts 359°
2026-05-01 13:11 -12.82896 -48.25697 38059 ft 450 kts 360°
2026-05-01 13:12 -12.77686 -48.25840 38056 ft 451 kts 359°
2026-05-01 13:12 -12.71407 -48.26014 38055 ft 450 kts 359°
2026-05-01 13:13 -12.65131 -48.26185 38053 ft 451 kts 360°
2026-05-01 13:13 -12.58860 -48.26358 38053 ft 451 kts 359°
2026-05-01 13:14 -12.52590 -48.26531 38052 ft 449 kts 360°
2026-05-01 13:14 -12.46350 -48.26701 38054 ft 452 kts 360°
2026-05-01 13:15 -12.40069 -48.26872 38045 ft 451 kts 359°
2026-05-01 13:15 -12.33819 -48.27043 38044 ft 450 kts 359°
2026-05-01 13:16 -12.27545 -48.27214 38048 ft 451 kts 360°
2026-05-01 13:16 -12.21270 -48.27385 38047 ft 451 kts 360°
2026-05-01 13:17 -12.08744 -48.27726 38029 ft 450 kts
2026-05-01 13:18 -11.99374 -48.27981 38016 ft 449 kts
2026-05-01 13:18 -11.93158 -48.28149 38013 ft 449 kts 359°
2026-05-01 13:19 -11.86889 -48.28320 38035 ft 452 kts 360°
2026-05-01 13:19 -11.80641 -48.28489 36781 ft 453 kts
2026-05-01 13:20 -11.77449 -48.28575 35457 ft 462 kts
2026-05-01 13:20 -11.74182 -48.28664 34101 ft 472 kts
2026-05-01 13:20 -11.70908 -48.28753 32756 ft 477 kts
2026-05-01 13:21 -11.64281 -48.28938 30943 ft 467 kts
2026-05-01 13:21 -11.61047 -48.29029 30508 ft 464 kts
2026-05-01 13:21 -11.57836 -48.29118 29850 ft 466 kts
2026-05-01 13:21 -11.54596 -48.29207 29258 ft 462 kts
2026-05-01 13:22 -11.51391 -48.29295 28660 ft 457 kts
2026-05-01 13:22 -11.48265 -48.29382 28077 ft 452 kts
2026-05-01 13:22 -11.45122 -48.29468 27490 ft 448 kts
2026-05-01 13:22 -11.42014 -48.29554 26906 ft 443 kts
2026-05-01 13:23 -11.38945 -48.29638 26312 ft 440 kts
2026-05-01 13:23 -11.35902 -48.29721 25704 ft 437 kts
2026-05-01 13:23 -11.32878 -48.29804 25141 ft 433 kts
2026-05-01 13:23 -11.29903 -48.29975 24587 ft 432 kts 357°
2026-05-01 13:24 -11.26933 -48.30504 24020 ft 432 kts 350°
2026-05-01 13:24 -11.24021 -48.31312 23382 ft 432 kts 348°
2026-05-01 13:24 -11.21164 -48.32122 22803 ft 427 kts 348°
2026-05-01 13:25 -11.15495 -48.33715 21668 ft 417 kts 348°
2026-05-01 13:25 -11.12709 -48.34494 21100 ft 413 kts 348°
2026-05-01 13:25 -11.09941 -48.35268 20522 ft 410 kts 349°
2026-05-01 13:25 -11.07231 -48.36025 19968 ft 407 kts 349°
2026-05-01 13:26 -11.04505 -48.36788 19382 ft 404 kts 349°
2026-05-01 13:26 -11.01802 -48.37544 18808 ft 402 kts 349°
2026-05-01 13:26 -10.99113 -48.38296 18252 ft 399 kts 349°
2026-05-01 13:26 -10.96441 -48.39043 17695 ft 394 kts 349°
2026-05-01 13:27 -10.93813 -48.39778 17145 ft 390 kts 349°
2026-05-01 13:27 -10.91203 -48.40507 16600 ft 386 kts 349°
2026-05-01 13:27 -10.86097 -48.41933 15509 ft 380 kts 349°
2026-05-01 13:28 -10.81021 -48.43350 14459 ft 374 kts 349°
2026-05-01 13:28 -10.78540 -48.44042 13930 ft 373 kts 349°
2026-05-01 13:29 -10.73571 -48.45428 12863 ft 366 kts 348°
2026-05-01 13:29 -10.68700 -48.46785 11840 ft 360 kts 348°
2026-05-01 13:30 -10.59245 -48.49419 10183 ft 336 kts 347°
2026-05-01 13:31 -10.55075 -48.50589 10123 ft 287 kts 348°
2026-05-01 13:31 -10.49364 -48.52176 9029 ft 281 kts 348°
2026-05-01 13:32 -10.45609 -48.53222 8314 ft 277 kts 348°
2026-05-01 13:33 -10.40084 -48.54760 7255 ft 273 kts 348°
2026-05-01 13:33 -10.36419 -48.55779 6541 ft 274 kts 348°
2026-05-01 13:34 -10.32776 -48.56792 5837 ft 272 kts 349°
2026-05-01 13:34 -10.29116 -48.57808 5121 ft 272 kts 349°
2026-05-01 13:35 -10.25445 -48.58137 4343 ft 260 kts 23°
2026-05-01 13:35 -10.23966 -48.57170 4013 ft 250 kts 49°
2026-05-01 13:35 -10.21929 -48.54386 3530 ft 248 kts 55°
2026-05-01 13:36 -10.20926 -48.52999 3497 ft 236 kts 56°
2026-05-01 13:36 -10.20041 -48.51668 3484 ft 218 kts 69°
2026-05-01 13:36 -10.20447 -48.48927 3345 ft 199 kts 121°
2026-05-01 13:37 -10.21202 -48.47815 3292 ft 178 kts 121°
2026-05-01 13:37 -10.21856 -48.46849 3226 ft 155 kts 121°
2026-05-01 13:37 -10.22416 -48.45996 3119 ft 136 kts 120°
2026-05-01 13:37 -10.22916 -48.45230 2868 ft 127 kts 119°
2026-05-01 13:38 -10.23883 -48.43734 2367 ft 128 kts 119°
2026-05-01 13:38 -10.24377 -48.42974 2223 ft 131 kts 120°
2026-05-01 13:38 -10.24871 -48.42221 2052 ft 131 kts 119°
2026-05-01 13:39 -10.25379 -48.41455 1863 ft 129 kts 120°
2026-05-01 13:39 -10.25891 -48.40689 1686 ft 134 kts 120°
2026-05-01 13:39 -10.26416 -48.39910 1560 ft 133 kts 121°
2026-05-01 13:39 -10.26912 -48.39118 1475 ft 130 kts 120°
2026-05-01 13:40 -10.27410 -48.38343 1178 ft 129 kts 122°
2026-05-01 13:40 -10.27901 -48.37590 979 ft 133 kts 125°
2026-05-01 13:40 -10.28426 -48.36832 800 ft 127 kts 120°
2026-05-01 13:40 -10.28910 -48.36130 755 ft 112 kts 115°
2026-05-01 13:41 -10.29133 -48.35737 747 ft 14 kts 125°
2026-05-01 13:41 -10.29228 -48.35754 748 ft 19 kts 210°
2026-05-01 13:41 -10.29343 -48.35824 747 ft 21 kts 210°
2026-05-01 13:41 -10.29383 -48.35827 750 ft 5 kts 139°
2026-05-01 13:42 -10.29394 -48.35830 747 ft 3 kts 216°
2026-05-01 13:42 -10.29418 -48.35849 750 ft 0 kts 213°